Other Public Products
Issued by NWS Grand Forks, ND

Home | Current Version | Previous Version | Text Only | Print | Product List | Glossary Off
Versions: 1 2 3 4 5 6 7 8 9 10 11 12 13 14 15 16 17 18 19 20 21 22 23 24 25 26 27 28 29 30 31 32 33 34 35 36 37 38 39 40 41 42 43 44 45 46 47 48 49 50

000
FPUS83 KFGF 280331
OPUFGF
PRAIRIE TO PINES WEATHER ROUNDUP
NATIONAL WEATHER SERVICE EASTERN NORTH DAKOTA/GRAND FORKS ND
900 PM CST TUE JAN 27 2015

 **SATELLITE DATA USED TO AUGMENT SKY COVER AT AUTOMATED STATIONS**
 *****  WEATHER ACROSS EASTERN NORTH DAKOTA  *****

CITY           SKY/WX    TMP DP  RH WIND       PRES   REMARKS
GRAND FORKS    CLOUDY    32  29  88 S17G24    29.92F WCI  21
GRAND FORKS AF CLOUDY    31  29  93 S15       29.91F WCI  20
GRAND CITY NWS NOT AVBL
BUXTON           N/A     31  31  99 SE21        N/A  WCI  19
DEVILS LAKE    CLOUDY    32  30  93 SE13      29.81F VSB 3/4 WCI  22
FARGO          CLOUDY    33  30  88 SE17G28   29.94F WCI  22
WAHPETON ARPT  CLOUDY    32  30  93 SE16G23   29.96F WCI  21
$$

 *****  WEATHER ACROSS CENTRAL AND WESTERN NORTH DAKOTA  *****

CITY           SKY/WX    TMP DP  RH WIND       PRES   REMARKS
JAMESTOWN      PTCLDY    32  31  96 SE13      29.82F WCI  22
BISMARCK       MOCLDY    36  32  85 E3        29.80S
MINOT          MOCLDY    37  33  85 SW9       29.77R
MINOT AFB      MOCLDY    30  30 100 W2        29.77S
GARRISON         N/A     35  33  92 N3        29.76F
WILLISTON      MOCLDY    34  31  88 N3        29.77F
DICKINSON      MOCLDY    35  29  78 W8        29.77F
HETTINGER      CLOUDY    35  29  78 CALM      29.81F
$$

 *****  OTHER OBSERVATIONS NORTHEAST NORTH DAKOTA  *****

CITY           SKY/WX    TMP DP  RH WIND       PRES   REMARKS
WALHALLA         N/A     32  32 100 SE13      29.89F FOG     WCI  22
LANGDON        FOG       32  32 100 SE14      29.83S VSB 1/4 WCI  22
CAVALIER       CLOUDY    32  32 100 S10G20    29.90F FOG     WCI  24
GRAFTON        NOT AVBL
CANDO          FOG       32  32 100 SE9       29.81S VSB 3/4 WCI  24
FORT TOTTEN    NOT AVBL
ROLLA          FOG       30  30 100 SE3       29.80S VSB<1/4
RUGBY          FAIR      28  28 100 E7        29.78S WCI  21
 ***** THE ABOVE OBSERVATIONS ARE NON NWS ARE NOT QUALITY
        CONTROLLED AND MAY MIS-REPORT RAIN FOR SNOW...
$$

 *****  OTHER OBSERVATIONS SOUTHEAST NORTH DAKOTA *****

CITY           SKY/WX    TMP DP  RH WIND       PRES   REMARKS
COOPERSTOWN    NOT AVBL
VALLEY CITY    MIX PCPN  32  32 100 S16G22    29.87F VSB 1/2 WCI  21
OAKES            N/A     32  32 100 SE9       29.88F WCI  24
GWINNER        CLOUDY    34  34 100 CALM      29.91F VSB 1/2
SHEYENNE NWR     N/A     32  31  97 S14       29.95S WCI  22
BUFFALO        NOT AVBL
WYNDMERE         N/A     34  34 100 S13         N/A  WCI  25
 ***** THE ABOVE OBSERVATIONS ARE NON NWS ARE NOT QUALITY
       CONTROLLED AND MAY MIS-REPORT RAIN FOR SNOW...
$$

  *****  WEATHER ACROSS NORTHERN MINNESOTA  *****

CITY           SKY/WX    TMP DP  RH WIND       PRES   REMARKS
FLAG ISLAND    CLOUDY    30  27  86 SE12      29.96F WCI  21
WARROAD        PTCLDY    30  27  86 S8        29.96R WCI  23
ROSEAU         CLEAR     30  25  80 S8        29.95R WCI  23
HALLOCK        CLOUDY    32  30  93 S12       29.93S WCI  23
THF RVR FALLS  MOCLDY    30  27  86 S9        29.95S WCI  22
HALSTAD          N/A     32  28  85 S26         N/A  WCI  19
FOSSTON        PTCLDY    28  25  86 S9        29.95S WCI  20
BAUDETTE       MOCLDY    31  24  75 SE6       29.97F
WASKISH        PTCLDY    30  25  80 SE7       29.98F WCI  23
CROOKSTON      CLOUDY    32  30  93 S15       29.96R WCI  22
$$
  *****  WEATHER ACROSS CENTRAL AND WEST MINNESOTA  *****

CITY           SKY/WX    TMP DP  RH WIND       PRES   REMARKS
BEMIDJI        CLOUDY    29  26  88 S12       29.98F WCI  20
PARK RAPIDS    CLOUDY    31  26  82 SE16      30.00F WCI  20
WADENA         CLOUDY    30  27  86 SE12      30.01F WCI  21
DETROIT LAKES  CLOUDY    32  30  93 SE18      29.97F WCI  20
MOORHEAD       CLOUDY    34  34 100 S20G26    29.96F WCI  22
FERGUS FALLS   CLOUDY    32  30  93 SE16      30.01S WCI  21
ELBOW LAKE     CLOUDY    32  30  94 SE18G26   29.99S WCI  20
MORRIS MN      CLOUDY    34  32  93 SE20      29.98F FOG     WCI  22
STAPLES        CLOUDY    30  27  86 SE10G17   30.03F WCI  21
WHEATON        CLOUDY    30  30 100 SE15      29.99R WCI  19
$$
  *****  WEATHER ELSEWHERE ACROSS MINNESOTA  *****

CITY           SKY/WX    TMP DP  RH WIND       PRES   REMARKS
DULUTH         CLOUDY    27  22  81 S7        30.09F WCI  19
INTRNTL FALLS  CLOUDY    29  26  89 S6        30.01F WCI  23
ELY            CLOUDY    27  23  86 S5        30.07F WCI  21
CLOQUET        CLOUDY    27  23  86 S3        30.10S
BRAINERD       CLOUDY    30  25  81 S10       30.06F WCI  21
HIBBING        CLOUDY    28  21  75 S7        30.07F WCI  21
ALEXANDRIA     CLOUDY    31  28  89 S16       30.02F WCI  20
SAINT CLOUD    CLOUDY    31  26  82 SE14      30.08F WCI  21
MINNEAPOLIS    CLOUDY    31  25  78 SE10      30.14S WCI  22
$$

  *****  WEATHER ACROSS SOUTH DAKOTA  *****

CITY           SKY/WX    TMP DP  RH WIND       PRES   REMARKS
SIOUX FALLS    CLEAR     37  33  85 SE10      29.97F
BROOKINGS      NOT AVBL
WATERTOWN      CLEAR     34  32  92 S15       29.91F WCI  24
HURON          CLEAR     36  33  89 SE13      29.89F
SISSETON         N/A     32  32 100 S13       29.94S WCI  22
ABERDEEN       CLEAR     34  31  88 S13       29.88F WCI  25
MITCHELL       CLEAR     37  33  85 SE13      29.91F
PIERRE         CLEAR     38  32  79 E7        29.81F
MOBRIDGE       CLEAR     38  33  82 SE8       29.79F
RAPID CITY     CLOUDY    51  27  39 W6        29.83F
$$

  *****  SOME WEATHER IN NEARBY STATES *****

CITY           SKY/WX    TMP DP  RH WIND       PRES   REMARKS
GLASGOW MT     MOCLDY    36  31  82 S5        29.77S
GREAT FALLS MT CLOUDY    49  27  42 SW10      29.86R
CHEYENNE WY    CLEAR     45  21  38 W16       30.05F
SCOTTSBLUFF NE   N/A    N/A N/A N/A MISG      29.96F
OMAHA NE       CLEAR     42  30  62 SE14      30.04F
DES MOINES IA  CLEAR     33  27  78 SE13      30.14S WCI  24
DAVENPORT IA   CLOUDY    26  21  81 SE6       30.23S WCI  19
CHICAGO IL     PTCLDY    24  17  74 E5        30.23S WCI  18
EAU CLAIRE WI  CLOUDY    27  20  75 SE6       30.17S WCI  20
LA CROSSE WI   CLOUDY    29  22  75 SE7       30.20S WCI  22
$$

  *****  SOME NATIONAL WEATHER *****

CITY           SKY/WX    TMP DP  RH WIND       PRES   REMARKS
LA GUARDIA NY  CLOUDY    22  10  60 NW15      29.80R WCI   9
RALEIGH NC     PTCLDY    35   4  27 VRB7G16   29.95R
ATLANTA GA     PTCLDY    38  29  70 N12       30.08R
NEW ORLEANS LA CLEAR     55  43  63 CALM      30.14R
OKLAHOMA CITY  PTCLDY    53  36  52 SW10      30.06S
ALBUQUERQUE NM PTCLDY    43  28  55 S3        30.26R
SALT LAKE CITY PTCLDY    41  36  82 CALM      30.14S
LOS ANGELES CA CLEAR     61  56  83 W9        30.17R
BOISE ID       LGT RAIN  37  36  93 NW3       30.16R FOG
SEATTLE WA     CLOUDY    52  48  87 SW5       30.18R
$$

*** WEATHER ACROSS MANITOBA...SASKATCHEWAN AND ONTARIO ***
                ***ONTARIO***

CITY           SKY/WX    TMP DP  RH WIND       PRES   REMARKS
GERALDTON      CLOUDY    23  19  86 SW12G17   30.08F WCI  12
THUNDER BAY    CLOUDY    27  23  86 SW3       30.15S
SIOUX LOOKOUT  FLURRIES  23  23 100 S6        30.02R WCI  16
TORONTO        CLEAR     14   1  57 N14       30.13S WCI  -1
BIG TROUT LK   FLURRIES  19  19 100 N9        29.98R WCI   9
PICKLE LAKE    NOT AVBL
DRYDEN         FLURRIES  25  23  93 S7        30.00F WCI  17
KENORA         FLURRIES  27  25  93 S10       29.96F WCI  17
$$
                *** MANITOBA***

CITY           SKY/WX    TMP DP  RH WIND       PRES   REMARKS
BRANDON        CLOUDY    27  27 100 NE14      29.84F FOG     WCI  15
DAUPHIN        CLOUDY    25  23  93 N12       29.94R WCI  14
ISLAND LAKE    FLURRIES  18  16  93 N10       30.03S WCI   6
PILOT MOUND      N/A     32  32 100 SE12        N/A  WCI  23
THE PAS        MOCLDY     9   5  85 N6        30.08S WCI  -1
THOMPSON       CLEAR     -6 -11  77 N8        30.13R WCI -21
WINNIPEG       CLOUDY    30  28  93 S13       29.94S WCI  20
LYNN LAKE      CLEAR    -13 -17  84 N8        30.13R WCI -30
CHURCHILL      CRYSTALS -11 -17  77 NW25G35   30.07R BLWGSNOWWCI -39
GILLAM         CLEAR     -6 -13  71 NW9       30.11R WCI -22
$$
                ***SASKATCHEWAN***

CITY           SKY/WX    TMP DP  RH WIND       PRES   REMARKS
ESTEVAN        CLOUDY    30  28  93 NE6       29.77F WCI  24
KINDERSLEY     CLOUDY    28  28 100 NE13      29.76F WCI  18
LLOYDMINSTER   CLOUDY    28  27  93 NE10      29.83S WCI  19
PRINCE ALBERT  LGT SNOW  25  25 100 E14       29.94S WCI  13
REGINA         PTCLDY    30  28  93 E6        29.79S WCI  24



USA.gov is the U.S. government's official web portal to all federal, state and local government web resources and services.